Location: Newark
(39.6867°N, 100.6772°W)
Time: 09:05:04
(UTC+00:00)

Hubble Space Telescope - Visible Passes

Search period start: 18 September 2019 00:00
Search period end: 28 September 2019 00:00
Orbit: 536 x 540 km, 28.5° (Epoch: 17 September)

Date Brightness Start Highest point End Pass type
(mag) Time Alt. Az. Time Alt. Az. Time Alt. Az.
18 Sep 2.7 11:16:43 14° SSW 11:18:09 16° S 11:20:45 10° SSE visible
19 Sep 2.7 11:06:52 15° SSW 11:07:28 15° S 11:09:55 10° SSE visible
20 Sep 2.9 10:57:05 14° S 10:57:05 14° S 10:59:00 10° SSE visible
21 Sep 3.2 10:47:20 11° S 10:47:20 11° S 10:47:57 10° SSE visible
